Location: Laupheim
(48.2265°N, 9.8829°E)
Time: 20:23:41
(UTC+01:00)

ISS - Pass Details

Date: 18 November 2017
Orbit: 401 x 407 km, 51.6° (Epoch: 18 November)

Event Time Altitude Azimuth Distance (km) Brightness Sun altitude
Exits shadow 05:31:23 13° 188° (S) 1,286 -1.3 -19.9°
Drops below altitude 10° 05:32:02 10° 179° (S) 1,447 -0.9 -19.7°
Sets 05:34:34 0° 158° (SSE) 2,301 0.4 -19.3°
